Regional Weather Roundup
Issued by NWS

Home | Current Version | Previous Version | Text Only | Print | Product List | Glossary On
Versions: 1 2 3 4 5 6 7 8 9 10 11 12 13 14 15 16 17 18 19 20 21 22 23 24 25 26 27 28 29 30 31 32 33 34 35 36 37 38 39 40 41 42 43 44 45 46 47 48 49 50
000
ASUS43 KDTX 231010
RWRMI
MICHIGAN HOURLY REGIONAL WEATHER ROUNDUP
NATIONAL WEATHER SERVICE DETROIT/PONTIAC MI
500 AM EST FRI FEB 23 2018

NOTE: "FAIR" INDICATES FEW OR NO CLOUDS BELOW 12,000 FEET WITH NO
SIGNIFICANT WEATHER AND/OR OBSTRUCTION TO VISIBILITY.

MIZ047>049-052>055-059>063-066>070-074>076-081>083-231100-
SOUTHEAST LOWER MICHIGAN

CITY           SKY/WX    TMP DP  RH WIND       PRES   REMARKS
ADRIAN         CLOUDY    33  32  96 SE10      30.26F FOG     WCI  25
ALMA           CLOUDY    32  31  98 E6        30.25F FOG     WCI  26
ANN ARBOR      CLOUDY    34  33  96 E6        30.28F FOG     WCI  29
BAD AXE        CLOUDY    32  30  93 SE5       30.32F WCI  27
CARO           CLOUDY    32  32  99 SE5       30.29F FOG     WCI  28
DETROIT CITY   CLOUDY    34  33  96 E10       30.30F FOG     WCI  26
DETROIT        DRIZZLE   35  34  96 E8        30.29F FOG     WCI  29
FLINT          CLOUDY    34  32  92 SE10      30.27F WCI  26
GROSSE ILE     CLOUDY    34  33  96 E7        30.28F FOG     WCI  28
HILLSDALE      CLOUDY    32  32 100 SE9       30.21F FOG     WCI  24
HOWELL         CLOUDY    33  33 100 SE14      30.25F FOG     WCI  24

CITY           SKY/WX    TMP DP  RH WIND       PRES   REMARKS
JACKSON        CLOUDY    34  33  96 E7        30.22F WCI  28
LAMBERTVILLE   CLOUDY    33  32  96 E5        30.28F FOG     WCI  29
LANSING        CLOUDY    33  33 100 SE10      30.23F FOG     WCI  25
LAPEER         CLOUDY    33  33  99 SE6       30.30F FOG     WCI  27
MASON          CLOUDY    35  32  89 SE7       30.23F FOG     WCI  29
MONROE         CLOUDY    34  32  93 SE8       30.29F FOG     WCI  27
MT. CLEMENS    CLOUDY    34  34 100 SE9       30.30F FOG     WCI  27
PONTIAC        CLOUDY    33  33 100 SE9       30.27F FOG     WCI  25
PORT HOPE        N/A     33  29  85 SE8       30.32F WCI  26
PORT HURON     CLOUDY    34  32  93 SE6       30.33F FOG     WCI  29
TRI CITIES     CLOUDY    32  29  88 E8        30.27F FOG     WCI  25
MIDLAND        CLOUDY    32  29  90 E5        30.26F WCI  27
TROY           CLOUDY    35  33  93 E5        30.32F FOG     WCI  31
SAGINAW HB     CLOUDY    32  32 100 E5        30.28F FOG     WCI  27
$$
MIZ043>046-050>051-056>058-064>065-071>073-077>080-231100-
SOUTHWEST LOWER MICHIGAN

CITY           SKY/WX    TMP DP  RH WIND       PRES   REMARKS
BATTLE CREEK   CLOUDY    35  34  96 E7        30.20F WCI  29
BENTON HARBOR  CLOUDY    37  34  89 SE13      30.15F WCI  29
BIG RAPIDS     CLOUDY    31  28  90 SE9       30.19F FOG     WCI  23
COLDWATER      CLOUDY    35  35 100 SE9       30.22F WCI  28
FREMONT        CLOUDY    32  28  84 SE10G17   30.17F WCI  24
HOLLAND        CLOUDY    37  33  85 SE12      30.18S WCI  29
GRAND RAPIDS   CLOUDY    34  31  88 E13       30.19F FOG     WCI  25
IONIA          CLOUDY    33  33  97 E10G17    30.20F FOG     WCI  25
KALAMAZOO      CLOUDY    37  34  89 VRB7      30.19F WCI  32
LUDINGTON      CLOUDY    32  31  94 SE13G18   30.15F WCI  23
MARSHALL       CLOUDY    34  34  99 E9        30.20F WCI  27
MOUNT PLEASANT CLOUDY    32  29  90 E7        30.24F FOG     WCI  25
MUSKEGON       CLOUDY    34  28  79 E14       30.17F WCI  25
SOUTH HAVEN    CLOUDY    37  35  90 SE9       30.17F WCI  31
$$
MIZ016>042-231100-
NORTHERN LOWER MICHIGAN

CITY           SKY/WX    TMP DP  RH WIND       PRES   REMARKS
ALPENA         CLOUDY    32  29  88 SE12      30.29F WCI  23
BEAVER ISLAND  CLOUDY    30  21  69 E13       30.22F WCI  20
BELLAIRE       CLOUDY    33  28  81 SE8       30.22F WCI  26
CADILLAC       CLOUDY    29  29  99 SE9       30.17F WCI  21
CHARLEVOIX     CLOUDY    32  23  68 E8        30.24F WCI  25
FRANKFORT      CLOUDY    36  29  78 SE9       30.15F WCI  29
GAYLORD        MOCLDY    28  25  88 SE13      30.19F WCI  17
GRAYLING       CLOUDY    29  27  89 SE8       30.20F WCI  22
HARBOR SPRINGS CLOUDY    30  24  77 E7        30.23F WCI  23
HOUGHTON LAKE  CLOUDY    29  26  89 SE9       30.22F WCI  20
MANISTEE       CLOUDY    34  29  82 SE10G17   30.15F WCI  26
OSCODA         CLOUDY    32  27  81 S9        30.31F WCI  24
PELLSTON       CLOUDY    30  24  78 SE8       30.24F WCI  22
ROGERS CITY    CLOUDY    31  28  86 SE6       30.29F WCI  26
TRAVERSE CITY  CLOUDY    35  26  69 VRB6      30.17F WCI  30
$$
MIZ007>008-015-231100-
EASTERN UPPER MICHIGAN

CITY           SKY/WX    TMP DP  RH WIND       PRES   REMARKS
KINROSS        CLOUDY    24  17  74 E12       30.29F WCI  13
MACKINAC ISLAN CLOUDY    30  24  80 E10G16    30.25F WCI  21
NEWBERRY       CLOUDY    27  23  84 SE10      30.22F WCI  17
S. S. MARIE    CLOUDY    26  13  57 E9        30.30F WCI  17
MUNISING         N/A     26  21  81 S8        30.16F WCI  18
$$
MIZ004>006-011>014-085-231100-
CENTRAL UPPER MICHIGAN

CITY           SKY/WX    TMP DP  RH WIND       PRES   REMARKS
MANISTIQUE     CLOUDY    27  24  89 E12       30.19F WCI  17
ESCANABA       CLOUDY    30  25  81 SE13G21   30.16F WCI  20
MENOMINEE      MIX PCPN  32  31  96 SE10      30.13F WCI  24
SAWYER-GWINN   LGT SNOW  25  22  88 SE9       30.12F WCI  15
$$
MIZ001>003-009>011-084-231100-
WESTERN UPPER MICHIGAN

CITY           SKY/WX    TMP DP  RH WIND       PRES   REMARKS
IRON MOUNTAIN  FRZ RAIN  28  26  92 SE8       30.07F FOG     WCI  20
HOUGHTON       SNOW      27  23  85 E13       30.11F VSB 1/2 WCI  16
COPPER HARBOR    N/A     27  24  89 S6        30.19F WCI  20
IRONWOOD       LGT SNOW  25  23  93 E5        30.05F VSB 3/4 WCI  19
$$

ABBREVIATIONS USED IN REMARKS
   TC - TEMPERATURE IN CELSIUS
  WCI - WIND CHILL INDEX
   HX - HEAT INDEX
  VSB - VISIBILITY




USA.gov is the U.S. government's official web portal to all federal, state and local government web resources and services.